SB KEPS @ AMSAT $ORB11272.N 2Line Orbital Elements 11272.AMSAT
HR AMSAT ORBITAL ELEMENTS FOR AMATEUR SATELLITES IN NASA FORMAT FROM WA5QGD FORT WORTH,TX September 29, 2011 Send Subscribe/unsubscribe to KEPS at http://www.amsat.org/mailman/listinfo/keps BID: ORB11272.N
DECODE 2-LINE ELSETS WITH THE FOLLOWING KEY: 1 AAAAAU 00 0 0 BBBBB.BBBBBBBB .CCCCCCCC 00000-0 00000-0 0 DDDZ 2 AAAAA EEE.EEEE FFF.FFFF GGGGGGG HHH.HHHH III.IIII JJ.JJJJJJJJKKKKKZ KEY: A-CATALOGNUM B-EPOCHTIME C-DECAY D-ELSETNUM E-INCLINATION F-RAAN G-ECCENTRICITY H-ARGPERIGEE I-MNANOM J-MNMOTION K-ORBITNUM Z-CHECKSUM
TO ALL RADIO AMATEURS BT
AO-07 1 07530U 74089B 11271.58464441 -.00000027 00000-0 10000-3 0 1919 2 07530 101.3975 274.0584 0012103 076.8194 283.4227 12.53584145687147 FO-29 1 24278U 96046B 11271.95681867 -.00000056 00000-0 -19485-4 0 06744 2 24278 098.5630 042.1719 0350867 348.5077 010.8199 13.52964594746499 SO-33 1 25509U 98061B 11271.66899932 .00000388 00000-0 67266-4 0 00653 2 25509 031.4319 018.9974 0353230 066.6620 297.0770 14.28450603675085 RS-22 1 27939U 03042A 11272.27404632 .00000761 00000-0 15466-3 0 6716 2 27939 097.8324 121.2355 0013902 020.3342 339.8396 14.63660216427563 VO-52 1 28650U 05017B 11271.72538272 .00001343 00000-0 17374-3 0 9101 2 28650 097.6321 310.1739 0026701 179.6582 180.4697 14.82209049346084 SO-67 1 35870U 09049F 11271.90534198 .00006158 00000-0 27884-3 0 02643 2 35870 097.2697 311.7702 0003159 054.7385 048.4366 15.21224301112709 HO-68 1 36122U 09072B 11272.21738486 -.00000044 00000-0 00000 0 0 7844 2 36122 100.4042 331.4013 0007605 350.4366 009.6605 13.16288274 85929 UO-11 1 14781U 84021B 11271.91740471 .00000744 00000-0 10520-3 0 06668 2 14781 097.9946 328.2387 0009284 156.5231 203.6408 14.80052190481136 AO-16 1 20439U 90005D 11271.85754595 .00000169 00000-0 78696-4 0 03048 2 20439 098.3949 218.0607 0010224 213.0583 146.9962 14.31944614132456 LO-19 1 20442U 90005G 11271.92083642 .00000116 00000-0 58680-4 0 02242 2 20442 098.3577 222.0799 0011487 205.2255 154.8370 14.32168127132645 AO-27 1 22825U 93061C 11271.89253382 .00000222 00000-0 10392-3 0 09275 2 22825 098.5422 214.2490 0008347 336.6567 023.4234 14.29367567939000 IO-26 1 22826U 93061D 11271.87290535 .00000167 00000-0 82241-4 0 06835 2 22826 098.5348 214.6729 0008636 331.1000 028.9702 14.29632417939122 GO-32 1 25397U 98043D 11271.68024889 -.00000023 00000-0 80029-5 0 5904 2 25397 098.3349 258.7547 0001124 024.2985 335.8253 14.23220914686681 NO-44 1 26931U 01043C 11271.57740510 -.00000046 00000-0 14495-4 0 08616 2 26931 067.0502 077.1136 0004986 259.6088 100.4419 14.29683856521709 SO-50 1 27607U 02058C 11271.55044697 .00000847 00000-0 15023-3 0 5763 2 27607 064.5600 013.5576 0080631 299.5414 059.7669 14.71835018471309 CO-55 1 27844U 03031E 11271.55493065 .00000533 00000-0 26667-3 0 02096 2 27844 098.7059 278.7665 0008991 260.7051 099.3118 14.20852416427595 CO-57 1 27848U 03031J 11271.51452063 .00000454 00000-0 23102-3 0 01563 2 27848 098.7110 277.9513 0009079 264.7115 095.3042 14.20626545427531 AO-51 1 28375U 04025K 11271.44939450 .00000129 00000-0 51276-4 0 00837 2 28375 098.1101 244.5310 0084317 116.4056 244.5835 14.40784421380931 CP3 1 31129U 07012N 11271.68507037 .00000566 00000-0 14004-3 0 9803 2 31129 097.8941 289.9029 0100698 218.6059 140.7798 14.52579282235865 CO-65 1 32785U 08021C 11271.64513719 .00001641 00000-0 21234-3 0 01117 2 32785 097.8393 333.5053 0014399 195.3225 164.7565 14.82156313184866 PRISM 1 33493U 09002B 11271.87827452 .00004604 00000-0 58471-3 0 00047 2 33493 098.1387 042.0979 0020618 067.6287 292.7073 14.82023307144878 SOHLA-1 1 33496U 09002E 11271.94730327 .00000595 00000-0 10819-3 0 05383 2 33496 098.0886 020.7741 0006910 145.8518 214.3132 14.69673014143729 TISAT-1 1 36799U 10035E 11271.93767289 .00002905 00000-0 38355-3 0 02767 2 36799 098.0929 341.1757 0013958 303.6531 056.3339 14.80769477065663 STUDSAT 1 36801U 10035G 11271.79632649 .00006757 00000-0 87430-3 0 2482 2 36801 098.0958 340.9751 0012617 292.2724 067.7149 14.81156711 65632 OOREOS 1 37224U 10062C 11153.29456974 .00000492 00000-0 77478-4 0 01796 2 37224 071.9726 071.8135 0020315 307.7637 052.1684 14.77036357028673 FO-69 1 37227U 0 11271.30243364 .00001151 00000-0 17202-3 0 01476 2 37227 071.9715 171.8914 0015364 090.4086 269.8836 14.76664819024549 NANOSALD 1 37361U 0 11242.25215765 .00180112 00000-0 75811-2 0 03512 2 37361 071.9735 221.4469 0025730 245.3422 114.7284 15.22200108033319 FO-70 1 37380U 0 11271.33250115 .00001087 00000-0 16378-3 0 02800 2 37380 071.9740 172.0569 0015990 085.6662 274.6348 14.76428945046080 NOAA-10 1 16969U 86073A 11271.73837103 .00000211 00000-0 10367-3 0 06529 2 16969 098.6118 300.0827 0011504 284.4891 075.4994 14.27480818302425 NOAA-11 1 19531U 88089A 11271.79784607 .00000233 00000-0 14278-3 0 06497 2 19531 098.7497 357.2833 0010412 252.7873 107.2192 14.14925652187409 NOAA-12 1 21263U 91032A 11271.95183420 .00000173 00000-0 91551-4 0 01564 2 21263 098.7479 289.6028 0011475 245.1027 114.8961 14.25743668059194 MET-3/5 1 21655U 91056A 11271.83084890 .00000051 00000-0 10000-3 0 02221 2 21655 082.5621 337.5491 0012078 257.1849 102.7928 13.17033194967363 MET-2/21 1 22782U 93055A 11271.51907063 -.00000049 00000-0 -57601-4 0 02166 2 22782 082.5445 240.8872 0022826 165.0958 195.0875 13.83661667912842 OKEAN-4 1 23317U 94066A 11271.92861794 .00001338 00000-0 16037-3 0 07420 2 23317 082.5372 276.2613 0023194 133.1456 227.1708 14.83175857915926 NOAA-14 1 23455U 94089A 11271.92525033 .00000043 00000-0 46064-4 0 06404 2 23455 098.8468 353.5021 0009465 350.9244 009.1751 14.13834050863733 NOAA-15 1 25338U 98030A 11271.73705698 .00000111 00000-0 66333-4 0 09637 2 25338 098.6652 256.5160 0011138 146.8172 213.3698 14.24954612695478 RESURS 1 25394U 98043A 11271.94168867 .00000117 00000-0 68303-4 0 09249 2 25394 098.3059 269.2780 0000749 332.4610 027.6532 14.24242142687071 FENGYUN1 1 25730U 99025A 11271.93996845 .00002271 00000-0 13363-2 0 04385 2 25730 098.8250 230.8992 0025305 025.6585 334.5830 14.08836494637672 OKEAN-0 1 25860U 99039A 11271.96901293 .00000660 00000-0 10817-3 0 04247 2 25860 097.8972 235.6331 0001705 051.9494 308.1866 14.73850515655943 NOAA-16 1 26536U 00055A 11271.69946397 .00000218 00000-0 14236-3 0 04464 2 26536 099.1327 304.3052 0011403 101.3266 258.9181 14.12648699567978 NOAA-17 1 27453U 02032A 11271.79510190 .00000178 00000-0 94815-4 0 04332 2 27453 098.3707 306.7006 0011292 201.6592 158.4120 14.24317584481406 NOAA-18 1 28654U 05018A 11271.80609242 .00000028 00000-0 40374-4 0 09118 2 28654 099.0075 223.2620 0014328 169.7731 190.3752 14.11517597327545 NOAA-19 1 33591U 09005A 11271.82630645 .00000311 00000-0 19655-3 0 01021 2 33591 098.8337 210.2700 0014938 045.2728 314.9676 14.11209275136004 HUBBLE 1 20580U 90037B 11271.81346906 .00002349 00000-0 16445-3 0 8410 2 20580 028.4701 059.4563 0003225 130.3425 229.7364 15.01553877975243 ISS 1 25544U 98067A 11272.40797881 .00030618 00000-0 35124-3 0 1490 2 25544 051.6424 356.0575 0010189 249.1943 203.1638 15.61743940737185 CO-58 1 28895U 05043F 11271.67843523 .00000882 00000-0 19204-3 0 09867 2 28895 097.9491 143.9802 0016717 254.9397 104.9959 14.60190713315346 FALCON 1 30776U 07006E 11271.87670289 .00004814 00000-0 33451-3 0 01948 2 30776 035.4325 076.3366 0002189 294.7960 065.2528 15.05063988250678 MAST 1 31126U 07012K 11271.96436887 .00000682 00000-0 16362-3 0 02727 2 31126 097.8911 293.3029 0093579 207.2529 152.3748 14.53816022236168 CAPE1 1 31130U 07012P 11271.49554565 .00000845 00000-0 20416-3 0 02843 2 31130 097.8931 289.4813 0101106 220.0394 139.3376 14.52480049235639 COMPASS 1 32787U 08021E 11271.61063798 .00003166 00000-0 39850-3 0 01042 2 32787 097.8395 333.4543 0015130 194.9680 165.1120 14.82665910184889 AAUSAT2 1 32788U 08021F 11271.62834939 .00003525 00000-0 44077-3 0 00952 2 32788 097.8376 333.7287 0014583 196.4646 163.6149 14.82871023184908 DO-64 1 32789U 08021G 11271.73591633 .00005058 00000-0 62028-3 0 01103 2 32789 097.8477 335.0493 0014740 192.9014 167.1829 14.83482054184930 CO-66 1 32791U 08021J 11271.65001745 .00001965 00000-0 25185-3 0 00977 2 32791 097.8392 333.3972 0015510 194.6362 165.4436 14.82314652184834 RS-30 1 32953U 08025A 11271.89759913 .00000010 00000-0 00000-0 0 01230 2 32953 082.4973 098.2481 0018850 157.9603 202.2293 12.43015257151975 TACSAT-3 1 35001U 09028A 11271.87671680 .00048964 00000-0 75556-3 0 07195 2 35001 040.4522 261.5546 0019782 263.9475 095.9092 15.53050068133183 PHARMSAT 1 35002U 09028B 11272.08446107 .00034924 00000-0 56505-3 0 6614 2 35002 040.4702 258.8654 0021675 273.7505 086.1200 15.51807040133237 HAWKSAT1 1 35003U 09028C 11271.87948404 .00975660 45903-3 18540-2 0 07980 2 35003 040.4448 206.8149 0013724 247.5373 112.4264 15.99654550133786 CP6 1 35004U 09028D 11247.64656856 .16152067 73217-5 10011-2 0 7842 2 35004 040.4403 342.9642 0002956 038.0069 322.2231 16.41039951130139 METEOR-M 1 35865U 09049A 11271.94886334 .00000177 00000-0 10000-3 0 07678 2 35865 098.6941 325.6734 0003353 088.2079 271.9480 14.21840921105339 RS-38 1 35869U 09049E 11271.93599415 .00000177 00000-0 10000-3 0 07436 2 35869 098.6920 325.6910 0005394 091.3307 268.8486 14.22021502105341 ARISSAT1 1 37772U 98067CK 11272.28211712 .00088287 00000-0 86682-3 0 1722 2 37772 051.6405 356.0630 0009411 274.8352 127.8568 15.65248811 8756 /EX